Regional Weather Roundup
Issued by NWS

Home | Current Version | Previous Version | Text Only | Print | Product List | Glossary Off
Versions: 1 2 3 4 5 6 7 8 9 10 11 12 13 14 15 16 17 18 19 20 21 22 23 24 25 26 27 28 29 30 31 32 33 34 35 36 37 38 39 40 41 42 43 44 45 46 47 48 49 50

000
ASUS43 KDTX 311510
RWRMI
MICHIGAN HOURLY REGIONAL WEATHER ROUNDUP
NATIONAL WEATHER SERVICE DETROIT/PONTIAC MI
1100 AM EDT FRI OCT 31 2014

NOTE: "FAIR" INDICATES FEW OR NO CLOUDS BELOW 12,000 FEET WITH NO
SIGNIFICANT WEATHER AND/OR OBSTRUCTION TO VISIBILITY.

MIZ047>049-052>055-059>063-066>070-074>076-081>083-311600-
SOUTHEAST LOWER MICHIGAN

CITY           SKY/WX    TMP DP  RH WIND       PRES   REMARKS
ADRIAN         LGT RAIN  41  38  89 N7        29.90F
ALMA           DRIZZLE   41  39  94 N7        29.93R
ANN ARBOR      LGT RAIN  42  38  85 N7        29.89R
BAD AXE        MIX PCPN  41  41 100 N8        29.90S
DETROIT CITY   LGT RAIN  45  40  82 W3        29.89F
DETROIT        LGT RAIN  43  41  93 SW6       29.89F
FLINT          CLOUDY    43  39  86 NW9       29.91S
GROSSE ILE     DRIZZLE   45  39  81 W5        29.87F
HILLSDALE      LGT RAIN  40  38  94 NW9       29.90F
HOWELL         LGT RAIN  40  38  93 NW6       29.89S

CITY           SKY/WX    TMP DP  RH WIND       PRES   REMARKS
JACKSON        LGT RAIN  40  37  89 NW7       29.91R
LAMBERTVILLE   LGT RAIN  43  41  93 W3        29.90S
LANSING        CLOUDY    41  38  89 N6        29.92S
LAPEER         NOT AVBL
MASON          RAIN      40  38  93 NW7       29.91S
MONROE         LGT RAIN  43  43 100 W6        29.88S
MT. CLEMENS    LGT RAIN  44  44  99 NW3       29.86F
PONTIAC        LGT RAIN  41  37  86 NW10      29.87S
PORT HOPE        N/A     45  40  82 N6        29.88S
PORT HURON     LGT RAIN  43  41  93 CALM      29.89S
TRI CITIES     LGT RAIN  41  38  89 N15       29.93S FOG
YPSILANTI      LGT RAIN  45  38  76 NW10      29.89S
$$
MIZ043>046-050>051-056>058-064>065-071>073-077>080-311600-
SOUTHWEST LOWER MICHIGAN

CITY           SKY/WX    TMP DP  RH WIND       PRES   REMARKS
BATTLE CREEK   CLOUDY    40  36  86 NW9       29.92F
BENTON HARBOR  CLOUDY    39  36  89 NW15G39   29.95F
BIG RAPIDS     LGT SNOW  35  35 100 N15G25    29.99R
COLDWATER      CLOUDY    41  38  91 NW8       29.92F
HOLLAND        LGT RAIN  41  37  86 N12G18    29.95R FOG
GRAND RAPIDS   CLOUDY    41  41 100 N8        29.93S
KALAMAZOO      CLOUDY    41  36  82 W7        29.93F
MARSHALL       CLOUDY    39  37  93 W7        29.91S
MUSKEGON       LGT RAIN  37  32  82 N26G37    30.02R
$$
MIZ016>042-311600-
NORTHERN LOWER MICHIGAN

CITY           SKY/WX    TMP DP  RH WIND       PRES   REMARKS
ALPENA         LGT SNOW  33  31  92 N20G32    30.07R VSB 3/4
BEAVER ISLAND  CLOUDY    34  27  74 N20G29    30.21R
BELLAIRE       CLOUDY    34  30  88 N14G25    30.14R
CADILLAC       LGT SNOW  31  29  93 N14G25    30.02R VSB 1
CHARLEVOIX     CLOUDY    33  29  85 NE20G33   30.19R
FRANKFORT      LGT RAIN  35  32  89 N15G24    30.14R
GAYLORD        LGT SNOW  30  27  88 N15G28    30.08R FOG
GRAYLING       LGT SNOW  33  30  90 N21G29    30.06R
HARBOR SPRINGS CLOUDY    32  27  82 N13G22    30.15R HAZE
HOUGHTON LAKE  LGT SNOW  35  31  85 N21G38    30.01R FOG
MANISTEE       CLOUDY    34  30  86 N10G21    30.12R
OSCODA         LGT SNOW  37  36  96 N24G32    29.97R
PELLSTON       MIX PCPN  33  26  75 N20G31    30.18R
TRAVERSE CITY  FLURRIES  36  29  75 N24G39    30.12R
$$
MIZ007>008-015-311600-
EASTERN UPPER MICHIGAN

CITY           SKY/WX    TMP DP  RH WIND       PRES   REMARKS
KINROSS        PTSUNNY   30  25  80 N21G31    30.20R
MACKINAC ISLAN CLOUDY    32  28  84 N16G32    30.18R
NEWBERRY       CLOUDY    31  23  71 N24G30    30.24R
S. S. MARIE    PTSUNNY   32  21  64 NE15G25   30.21R
$$
MIZ004>006-011>014-085-311600-
CENTRAL UPPER MICHIGAN

CITY           SKY/WX    TMP DP  RH WIND       PRES   REMARKS
MANISTIQUE     CLOUDY    34  27  76 N20G29    30.26R
ESCANABA       PTSUNNY   34  25  69 N13G25    30.29R
MENOMINEE      CLOUDY    34  21  60 N16G28    30.28R
SAWYER-GWINN   CLOUDY    30  23  74 N25G32    30.30R BLWGSNOW
$$
MIZ001>003-009>011-084-311600-
WESTERN UPPER MICHIGAN

CITY           SKY/WX    TMP DP  RH WIND       PRES   REMARKS
IRON MOUNTAIN  CLOUDY    31  23  72 N21       30.32R
HOUGHTON       LGT SNOW  30  21  69 NE12      30.42R
COPPER HARBOR    N/A     35  26  69 NE28G36   30.42R
IRONWOOD       CLOUDY    28  27  93 N9G17     30.44R
$$

ABBREVIATIONS USED IN REMARKS
   TC - TEMPERATURE IN CELSIUS
  WCI - WIND CHILL INDEX
   HX - HEAT INDEX
  VSB - VISIBILITY




USA.gov is the U.S. government's official web portal to all federal, state and local government web resources and services.